Location: Nickerson Gardens
(33.9320°N, 118.2484°W)
Time: 09:10:45
(UTC+00:00)

Meteor PRIRODA - Pass Details

Date: 29 October 2020
Orbit: 491 x 509 km, 97.6° (Epoch: 26 November)

Event Time Altitude Azimuth Distance (km) Brightness Sun altitude
Rises 13:12:22 0° 8° (N) 2,584 7.3 -12.6°
Reaches altitude 10° 13:14:27 10° 7° (N) 1,700 6.3 -12.1°
Maximum altitude 13:18:06 70° 283° (WNW) 533 3.5 -11.4°
Drops below altitude 10° 13:21:44 10° 200° (SSW) 1,699 6.2 -10.7°
Sets 13:23:48 0° 198° (SSW) 2,581 7.2 -10.2°
